[[{"header":{"parameterUnit":"m.s-1","parameterCategory":1,"la1":30.2991,"la2":30.254,"lo1":-89.0895,"lo2":-89.0444,"dy":0.0017,"dx":0.0017,"nx":28,"ny":28,"refTime":"2024-05-07T09:00:00:Z","depth":0,"parameterNumber":2,"parameterNumberName":"U-component_of_WINDS"},"data":[0,0,0,0,0,0,0,0,0,0,0,0,0,0,0,0,0,0,0,0,0,0,0,0,0,0,0,0,0,0,0,0,0,0,0,0,0,0,0,0,0,0,0,0,0,0,0,0,0,0,0,0,0,0,0,0,0,0,-1.8792,-1.8793,0,-1.8882,-1.8883,-1.8884,-1.8904,-1.8904,-1.8903,-1.8903,-1.8995,-1.8998,-1.9001,0,0,0,0,0,0,0,0,0,0,0,0,0,-1.8641,-1.8644,-1.8792,-1.8793,-1.8794,-1.8881,-1.8883,-1.8884,-1.8905,-1.8904,-1.8903,-1.8902,-1.8994,-1.8998,-1.9002,0,0,0,0,0,0,0,0,0,0,0,0,0,-1.8716,-1.8645,-1.8792,-1.8815,-1.8818,-1.8881,-1.8883,-1.8884,-1.8905,-1.8904,-1.8903,-1.8902,-1.8993,-1.8998,-1.9002,-1.9049,0,0,-1.9016,-1.9018,0,0,0,0,0,0,0,0,-1.8712,-1.8722,-1.8811,-1.8814,-1.8817,-1.8881,-1.8864,-1.894,-1.8905,-1.8872,-1.8903,-1.8902,-1.8958,-1.8966,-1.8984,-1.9053,-1.9057,-1.9017,-1.9019,-1.9021,-1.9023,0,0,0,0,0,0,0,-1.8707,-1.8718,-1.8828,-1.8812,-1.8816,-1.8822,-1.8831,-1.8878,-1.8919,-1.8875,-1.8876,-1.8887,-1.896,-1.898,-1.8987,-1.9059,-1.9016,-1.9021,-1.9023,-1.9025,-1.9172,-1.9173,0,0,0,0,0,0,-1.8697,-1.8714,-1.8825,-1.883,-1.8761,-1.8825,-1.8836,-1.8861,-1.8919,-1.8927,-1.8887,-1.8887,-1.8973,-1.8981,-1.899,-1.9049,-1.9021,-1.9026,-1.9028,-1.9171,-1.9172,-1.9173,0,0,0,0,0,0,-1.8694,-1.8707,-1.8821,-1.8772,-1.8787,-1.8829,-1.8857,-1.8864,-1.8884,-1.8928,-1.8936,-1.89,-1.8972,-1.8984,-1.9034,-1.9053,-1.9028,-1.9032,-1.9169,-1.9171,-1.9173,-1.9167,0,0,0,0,0,0,-1.8689,-1.8706,-1.8723,-1.8773,-1.879,-1.8863,-1.8858,-1.8866,-1.8891,-1.8892,-1.8942,-1.895,-1.8972,-1.9027,-1.9039,-1.9059,-1.9035,-1.9168,-1.917,-1.9172,-1.9166,-1.9169,-1.9171,0,0,0,0,0,-1.8684,-1.8718,-1.8724,-1.8737,-1.8813,-1.8864,-1.8874,-1.8899,-1.8893,-1.8911,-1.894,-1.8948,-1.9049,-1.9032,-1.9046,-1.9067,-1.9167,-1.9169,-1.9172,-1.9165,-1.9168,-1.9171,0,0,0,0,0,0,-1.867,-1.8725,-1.8732,-1.8783,-1.8819,-1.8867,-1.8891,-1.8901,-1.894,-1.8939,-1.8969,-1.898,-1.9029,-1.9053,-1.9034,-1.9116,-1.9108,-1.9113,-1.9098,-1.9101,-1.9104,-1.9097,-1.9039,0,0,0,0,0,-1.8673,-1.8709,-1.8756,-1.8796,-1.8814,-1.885,-1.8873,-1.8889,-1.8927,-1.8943,-1.8975,-1.9012,-1.9053,-1.9078,-1.9118,-1.917,-1.9181,-1.9191,-1.9193,-1.9195,-1.9199,-1.923,-1.9235,-1.9182,-1.9182,-1.9182,0,0,-1.8679,-1.8714,-1.8735,-1.8794,-1.8824,-1.8862,-1.8862,-1.8902,-1.8931,-1.8949,-1.8999,-1.9024,-1.9068,-1.9119,-1.9144,-1.9141,-1.9217,-1.9199,-1.92,-1.9203,-1.9233,-1.9238,-1.9242,-1.9184,-1.9183,-1.9183,0,0,-1.871,-1.8739,-1.8777,-1.8806,-1.8851,-1.8875,-1.8884,-1.8931,-1.8949,-1.8999,-1.9014,-1.9049,-1.9117,-1.9148,-1.9173,-1.9216,-1.9226,-1.9229,-1.9241,-1.927,-1.9274,-1.9278,-1.9294,-1.9299,-1.9233,-1.9233,-1.9233,0,-1.8712,-1.8769,-1.8795,-1.8834,-1.886,-1.8879,-1.8917,-1.8945,-1.9,-1.9018,-1.9015,-1.9101,-1.9132,-1.9192,-1.9202,-1.9222,-1.9233,-1.9223,-1.9271,-1.9276,-1.928,-1.9295,-1.9301,-1.9233,-1.9233,-1.9233,-1.9233,0,-1.877,-1.8809,-1.8834,-1.8887,-1.8916,-1.8955,-1.8987,-1.9014,-1.9028,-1.9052,-1.9104,-1.9142,-1.9189,-1.9205,-1.9219,-1.9267,-1.9264,-1.9265,-1.9258,-1.9284,-1.9299,-1.9306,-1.9233,-1.9233,-1.9233,-1.9233,0,0,-1.8793,-1.886,-1.8869,-1.8894,-1.8945,-1.8976,-1.9017,-1.9063,-1.9085,-1.9123,-1.9158,-1.9216,-1.9218,-1.9246,-1.9264,-1.929,-1.9323,-1.9288,-1.929,-1.9294,-1.9379,-1.9377,-1.9383,-1.9329,-1.9331,-1.9332,-1.9375,0,-1.883,-1.8902,-1.8927,-1.8986,-1.9024,-1.9042,-1.9077,-1.9113,-1.9137,-1.9173,-1.92,-1.9241,-1.924,-1.9257,-1.9283,-1.9313,-1.934,-1.931,-1.9363,-1.9364,-1.9351,-1.9391,-1.939,-1.9429,-1.9381,-1.9382,-1.9383,0,-1.8883,-1.8921,-1.8984,-1.9032,-1.9048,-1.9079,-1.9124,-1.9158,-1.92,-1.9216,-1.9247,-1.9263,-1.9307,-1.9298,-1.9359,-1.9338,-1.9361,-1.9379,-1.9381,-1.9387,-1.9375,-1.9398,-1.9442,-1.9448,-1.9392,-1.9392,-1.9391,0,-1.8894,-1.8962,-1.9009,-1.9029,-1.9085,-1.9107,-1.9131,-1.9172,-1.9198,-1.9238,-1.9256,-1.93,-1.9324,-1.9359,-1.9387,-1.9377,-1.9446,-1.9439,-1.9461,-1.946,-1.9474,-1.9473,-1.9522,-1.9489,-1.9489,-1.9489,-1.9489,0,-1.8933,-1.8971,-1.9015,-1.9043,-1.9087,-1.9115,-1.9158,-1.9184,-1.922,-1.9254,-1.9273,-1.9306,-1.9341,-1.9378,-1.9401,-1.9449,-1.9459,-1.9474,-1.9479,-1.9472,-1.947,-1.9488,-1.9486,-1.9491,-1.949,-1.949,-1.949,0,-1.8953,-1.8983,-1.9036,-1.9085,-1.9098,-1.9128,-1.917,-1.9199,-1.9225,-1.9268,-1.928,-1.932,-1.9365,-1.9397,-1.9455,-1.947,-1.9521,-1.9527,-1.9507,-1.951,-1.9531,-1.9528,-1.9593,-1.9603,-1.9563,-1.9563,-1.9563,0,-1.8976,-1.9005,-1.9058,-1.9082,-1.9106,-1.9145,-1.9173,-1.9203,-1.923,-1.928,-1.9304,-1.935,-1.9388,-1.9459,-1.9494,-1.9538,-1.9545,-1.9565,-1.9552,-1.9544,-1.9546,-1.9544,-1.9547,-1.9566,-1.9567,-1.9567,-1.9567,0,-1.9013,-1.9027,-1.9065,-1.9109,-1.9141,-1.9177,-1.9213,-1.9232,-1.9269,-1.9299,-1.9345,-1.9375,-1.9434,-1.948,-1.9528,-1.9555,-1.9567,-1.9571,-1.9579,-1.9571,-1.9559,-1.9566,-1.9512,-1.9569,-1.9569,-1.9569,-1.9569,-1.9569,-1.9036,-1.9063,-1.9104,-1.9146,-1.9177,-1.9211,-1.924,-1.9269,-1.9308,-1.9358,-1.9374,-1.9422,-1.9463,-1.9529,-1.9556,-1.9595,-1.9594,-1.9605,-1.9608,-1.961,-1.961,-1.9553,-1.9604,-1.9604,-1.9604,-1.9604,-1.9604,0,-1.9074,-1.9102,-1.914,-1.919,-1.9224,-1.9232,-1.9273,-1.9301,-1.9343,-1.938,-1.9418,-1.9471,-1.9516,-1.9554,-1.9601,-1.9624,-1.9632,-1.9636,-1.9634,-1.964,-1.9608,-1.9597,-1.9629,-1.9629,-1.9629,-1.9629,-1.9629,-1.9629,-1.9099,-1.9146,-1.9164,-1.9227,-1.9255,-1.9301,-1.9324,-1.9355,-1.9386,-1.9444,-1.9481,-1.9506,-1.9544,-1.9594,-1.9636,-1.9646,-1.9662,-1.9665,-1.9677,-1.9646,-1.9643,-1.964,-1.9629,-1.9668,-1.9668,-1.9706,-1.9707,-1.9707]},{"header":{"parameterUnit":"m.s-1","parameterCategory":1,"la1":30.2991,"la2":30.254,"lo1":-89.0895,"lo2":-89.0444,"dy":0.0017,"dx":0.0017,"nx":28,"ny":28,"refTime":"2024-05-07T09:00:00:Z","depth":0,"parameterNumber":3,"parameterNumberName":"V-component_of_WINDS"},"data":[0,0,0,0,0,0,0,0,0,0,0,0,0,0,0,0,0,0,0,0,0,0,0,0,0,0,0,0,0,0,0,0,0,0,0,0,0,0,0,0,0,0,0,0,0,0,0,0,0,0,0,0,0,0,0,0,0,0,5.5823,5.5825,0,5.5947,5.5949,5.595,5.5932,5.593,5.5928,5.5926,5.6048,5.6053,5.6058,0,0,0,0,0,0,0,0,0,0,0,0,0,5.5567,5.5572,5.5823,5.5825,5.5826,5.5947,5.5949,5.595,5.5932,5.593,5.5927,5.5925,5.6046,5.6053,5.6059,0,0,0,0,0,0,0,0,0,0,0,0,0,5.5683,5.5574,5.5823,5.5832,5.5834,5.5947,5.5949,5.5951,5.5933,5.593,5.5927,5.5924,5.6044,5.6052,5.606,5.617,0,0,5.6083,5.6087,0,0,0,0,0,0,0,0,5.5677,5.5693,5.5829,5.5832,5.5834,5.5921,5.5903,5.6024,5.5934,5.5895,5.5926,5.5922,5.6008,5.6019,5.6049,5.6176,5.6181,5.6084,5.6089,5.6092,5.6094,0,0,0,0,0,0,0,5.5669,5.5687,5.5872,5.5831,5.5834,5.5829,5.5842,5.5926,5.5967,5.5898,5.5897,5.5912,5.6009,5.6041,5.6051,5.6183,5.6084,5.6091,5.6096,5.6099,5.6407,5.6411,0,0,0,0,0,0,5.5659,5.5681,5.5868,5.5876,5.5746,5.5836,5.585,5.5896,5.5966,5.5974,5.5915,5.5911,5.6029,5.6042,5.6056,5.619,5.6092,5.6099,5.6104,5.6404,5.6408,5.6412,0,0,0,0,0,0,5.5654,5.5676,5.5863,5.5778,5.5802,5.5844,5.5895,5.59,5.5933,5.5979,5.5986,5.5941,5.6027,5.6045,5.6142,5.6194,5.6103,5.611,5.64,5.6405,5.641,5.646,0,0,0,0,0,0,5.5646,5.5674,5.5717,5.5779,5.5806,5.5949,5.5898,5.5905,5.5947,5.5943,5.6005,5.6012,5.6026,5.6131,5.615,5.6203,5.6116,5.6395,5.6402,5.6408,5.6454,5.6466,5.6477,0,0,0,0,0,5.5637,5.5725,5.5719,5.5742,5.5861,5.5952,5.5967,5.5983,5.5951,5.5994,5.6024,5.601,5.6185,5.6141,5.6162,5.6219,5.6392,5.64,5.6408,5.6448,5.6464,5.6476,0,0,0,0,0,0,5.5666,5.5733,5.5728,5.5839,5.589,5.5949,5.6004,5.5998,5.6059,5.6052,5.6068,5.6082,5.6181,5.6209,5.6159,5.633,5.6284,5.6297,5.6308,5.6322,5.6334,5.6325,5.6123,0,0,0,0,0,5.5685,5.5755,5.5809,5.5902,5.5928,5.5962,5.6002,5.601,5.6063,5.6084,5.6121,5.6172,5.6239,5.6282,5.6345,5.6458,5.6471,5.6507,5.6518,5.6528,5.6538,5.6601,5.6617,5.6438,5.6438,5.6438,0,0,5.5726,5.5771,5.5814,5.5909,5.5949,5.602,5.598,5.6056,5.6109,5.6095,5.619,5.6219,5.6277,5.6383,5.6431,5.6409,5.6591,5.6538,5.6545,5.6551,5.6611,5.6627,5.6643,5.6443,5.6443,5.6442,0,0,5.5836,5.5877,5.5959,5.6002,5.6065,5.6087,5.6106,5.6167,5.6186,5.6282,5.6274,5.6335,5.645,5.6492,5.6528,5.6655,5.6645,5.6675,5.6736,5.6796,5.681,5.6823,5.6869,5.6885,5.6686,5.6686,5.6686,0,5.5878,5.5985,5.6002,5.608,5.6122,5.6115,5.6198,5.6237,5.6317,5.6346,5.6321,5.6465,5.6503,5.6619,5.6651,5.668,5.6703,5.6668,5.6807,5.682,5.6832,5.6876,5.6893,5.6689,5.6689,5.6689,5.6688,0,5.6034,5.6109,5.6167,5.6247,5.6295,5.6375,5.6403,5.645,5.6454,5.6478,5.6576,5.6622,5.6696,5.6724,5.6727,5.684,5.6825,5.6804,5.6758,5.6852,5.6894,5.6911,5.6694,5.6693,5.6692,5.6691,0,0,5.6165,5.6254,5.6275,5.6312,5.6381,5.6439,5.6518,5.6592,5.6632,5.6687,5.6754,5.6852,5.6833,5.6874,5.6882,5.6935,5.7034,5.6907,5.6908,5.6929,5.7162,5.7178,5.7198,5.7027,5.7031,5.7033,5.7157,0,5.6283,5.6425,5.6443,5.6569,5.6638,5.6633,5.6702,5.6751,5.6776,5.6838,5.6865,5.6934,5.6903,5.6928,5.6981,5.7011,5.7081,5.7002,5.7089,5.7092,5.7076,5.7219,5.7237,5.7352,5.7174,5.7176,5.7178,0,5.6438,5.6501,5.6634,5.6695,5.6725,5.6787,5.6856,5.6915,5.6971,5.6986,5.7033,5.7034,5.7116,5.7067,5.7179,5.7126,5.7162,5.7182,5.7187,5.7196,5.7141,5.7233,5.7389,5.7406,5.7204,5.7202,5.72,0,5.6522,5.6638,5.6734,5.6765,5.6838,5.6882,5.6914,5.6967,5.7011,5.7071,5.7099,5.7167,5.7205,5.7257,5.7277,5.7239,5.7388,5.7341,5.7402,5.7402,5.7434,5.7431,5.7598,5.7457,5.7456,5.7456,5.7456,0,5.6651,5.6733,5.6773,5.6831,5.6923,5.6942,5.7032,5.7062,5.7109,5.7173,5.7172,5.7231,5.7254,5.7317,5.7332,5.7423,5.744,5.7453,5.7457,5.7454,5.7452,5.7478,5.7471,5.7461,5.746,5.7459,5.7458,0,5.676,5.679,5.6893,5.6955,5.6972,5.7037,5.7089,5.7145,5.717,5.7251,5.7271,5.7309,5.7383,5.7408,5.7498,5.7508,5.7614,5.761,5.7596,5.7597,5.7657,5.7651,5.7847,5.7873,5.7713,5.7715,5.7716,0,5.6841,5.6905,5.6973,5.7017,5.7052,5.7121,5.7166,5.7187,5.7234,5.7303,5.7351,5.7425,5.7485,5.7604,5.7639,5.7708,5.7706,5.7769,5.7716,5.7711,5.7707,5.7704,5.771,5.7779,5.7781,5.7782,5.7783,0,5.6982,5.6994,5.706,5.7131,5.7185,5.7242,5.7296,5.7331,5.736,5.7413,5.749,5.7537,5.7629,5.7703,5.7773,5.7805,5.7799,5.78,5.7818,5.7816,5.7806,5.7813,5.7624,5.7796,5.7794,5.7793,5.7793,5.7792,5.708,5.7137,5.7195,5.7268,5.7311,5.7363,5.7419,5.7452,5.7517,5.7595,5.7603,5.7686,5.774,5.7834,5.787,5.7934,5.7916,5.7942,5.7948,5.7955,5.796,5.7795,5.7947,5.7946,5.7946,5.7946,5.7946,0,5.7222,5.7259,5.7326,5.7404,5.7462,5.7453,5.7513,5.7562,5.7635,5.7687,5.7748,5.7836,5.7908,5.7949,5.802,5.8064,5.8064,5.8082,5.8079,5.8087,5.7971,5.7949,5.8082,5.8082,5.8082,5.8082,5.8082,5.8082,5.7303,5.7398,5.7417,5.7534,5.757,5.7653,5.7688,5.7735,5.7777,5.7877,5.7937,5.7964,5.8012,5.8087,5.8152,5.8162,5.8188,5.8209,5.8218,5.8109,5.8095,5.8082,5.8061,5.8215,5.8215,5.8328,5.8329,5.833]}]]